| time (UTC) | temp F | wind direction | speed MPH | gust MPH | rain 1hr in | rain 24hr in | rain mn in | humidity % | barometer mb |
| 20260906075354 | 63 | 295 | 2.0 | 5.0 | 0.00 | 0.03 | 0.00 | 96 | 1015.9 |
| 20260906074853 | 63 | 350 | 2.0 | 5.0 | 0.00 | 0.03 | 0.00 | 97 | 1015.9 |
| 20260906074339 | 62 | 318 | 1.0 | 4.0 | 0.00 | 0.03 | 0.00 | 96 | 1015.9 |
| 20260906073838 | 62 | 316 | 1.0 | 3.0 | 0.00 | 0.03 | 0.00 | 96 | 1016.1 |
| 20260906073323 | 63 | 311 | 2.0 | 3.0 | 0.00 | 0.03 | 0.00 | 96 | 1016.2 |
| 20260906072824 | 62 | 315 | 2.0 | 3.0 | 0.00 | 0.03 | 0.00 | 96 | 1016.3 |
| 20260906072324 | 63 | 273 | 2.0 | 2.0 | 0.00 | 0.03 | 0.00 | 96 | 1016.3 |
| 20260906071824 | 63 | 317 | 2.0 | 3.0 | 0.00 | 0.03 | 0.00 | 96 | 1016.2 |
| 20260906071324 | 63 | 308 | 2.0 | 3.0 | 0.00 | 0.03 | 0.00 | 97 | 1016.2 |
| 20260906070824 | 62 | 320 | 2.0 | 3.0 | 0.00 | 0.03 | 0.00 | 97 | 1016.2 |
| 20260906070324 | 62 | 318 | 2.0 | 4.0 | 0.00 | 0.03 | 0.00 | 96 | 1016.0 |
| 20260906065824 | 62 | 305 | 2.0 | 4.0 | 0.00 | 0.03 | 0.00 | 96 | 1016.0 |
| 20260906065324 | 62 | 315 | 2.0 | 4.0 | 0.00 | 0.03 | 0.00 | 96 | 1016.0 |
| 20260906064823 | 63 | 289 | 2.0 | 3.0 | 0.00 | 0.03 | 0.00 | 96 | 1016.0 |
| 20260906064322 | 63 | 308 | 2.0 | 3.0 | 0.00 | 0.03 | 0.00 | 96 | 1016.1 |
| 20260906063823 | 63 | 315 | 2.0 | 3.0 | 0.00 | 0.03 | 0.00 | 96 | 1016.3 |
| 20260906063323 | 63 | 343 | 2.0 | 4.0 | 0.00 | 0.03 | 0.00 | 97 | 1016.4 |
| 20260906062823 | 63 | 313 | 2.0 | 4.0 | 0.00 | 0.03 | 0.00 | 96 | 1016.4 |
| 20260906062323 | 63 | 298 | 2.0 | 4.0 | 0.00 | 0.03 | 0.00 | 96 | 1016.4 |
| 20260906061823 | 63 | 327 | 3.0 | 4.0 | 0.00 | 0.03 | 0.00 | 97 | 1016.4 |
| 20260906061323 | 63 | 326 | 3.0 | 4.0 | 0.00 | 0.03 | 0.00 | 96 | 1016.4 |
| 20260906060823 | 63 | 302 | 2.0 | 4.0 | 0.00 | 0.03 | 0.00 | 96 | 1016.5 |
| 20260906060323 | 63 | 307 | 2.0 | 3.0 | 0.00 | 0.03 | 0.00 | 96 | 1016.5 |
| 20260906055823 | 63 | 328 | 2.0 | 3.0 | 0.00 | 0.03 | 0.00 | 96 | 1016.6 |
| 20260906055323 | 63 | 316 | 3.0 | 5.0 | 0.00 | 0.03 | 0.00 | 96 | 1016.7 |
| 20260906054810 | 63 | 327 | 2.0 | 5.0 | 0.00 | 0.03 | 0.00 | 96 | 1017.0 |
| 20260906054311 | 63 | 305 | 2.0 | 3.0 | 0.00 | 0.03 | 0.00 | 96 | 1017.1 |
| 20260906053755 | 63 | 310 | 2.0 | 3.0 | 0.00 | 0.03 | 0.00 | 96 | 1017.1 |
| 20260906053256 | 63 | 329 | 2.0 | 4.0 | 0.00 | 0.03 | 0.00 | 96 | 1017.1 |
| 20260906052757 | 63 | 293 | 2.0 | 4.0 | 0.00 | 0.03 | 0.00 | 96 | 1017.1 |
| 20260906052257 | 63 | 300 | 2.0 | 3.0 | 0.00 | 0.03 | 0.00 | 96 | 1017.1 |
| 20260906051756 | 63 | 305 | 2.0 | 4.0 | 0.00 | 0.03 | 0.00 | 96 | 1017.1 |
| 20260906051254 | 63 | 309 | 2.0 | 4.0 | 0.00 | 0.03 | 0.00 | 96 | 1017.0 |
| 20260906050751 | 63 | 346 | 2.0 | 4.0 | 0.00 | 0.03 | 0.00 | 96 | 1017.0 |
| 20260906050251 | 63 | 304 | 2.0 | 4.0 | 0.00 | 0.03 | 0.00 | 96 | 1017.0 |
| 20260906045751 | 63 | 326 | 2.0 | 4.0 | 0.00 | 0.03 | 0.00 | 96 | 1017.1 |
| 20260906045250 | 63 | 287 | 2.0 | 4.0 | 0.00 | 0.03 | 0.00 | 96 | 1017.1 |
| 20260906044751 | 63 | 292 | 2.0 | 4.0 | 0.00 | 0.03 | 0.00 | 96 | 1017.1 |
| 20260906044251 | 64 | 310 | 2.0 | 4.0 | 0.00 | 0.03 | 0.00 | 96 | 1017.1 |
| 20260906043751 | 64 | 272 | 2.0 | 4.0 | 0.00 | 0.03 | 0.00 | 96 | 1017.1 |
| 20260906043252 | 64 | 349 | 3.0 | 4.0 | 0.00 | 0.03 | 0.00 | 96 | 1017.1 |
| 20260906042751 | 64 | 339 | 2.0 | 4.0 | 0.00 | 0.03 | 0.00 | 96 | 1017.2 |
| 20260906042251 | 64 | 11 | 2.0 | 4.0 | 0.00 | 0.03 | 0.00 | 96 | 1017.2 |
| 20260906041749 | 64 | 350 | 2.0 | 4.0 | 0.00 | 0.03 | 0.00 | 96 | 1017.2 |
| 20260906041248 | 64 | 314 | 2.0 | 4.0 | 0.00 | 0.03 | 0.00 | 95 | 1017.3 |
| 20260906040749 | 64 | 301 | 2.0 | 4.0 | 0.00 | 0.03 | 0.00 | 95 | 1017.2 |
| 20260906040248 | 64 | 333 | 2.0 | 4.0 | 0.00 | 0.03 | 0.00 | 95 | 1017.2 |
| 20260906035749 | 64 | 332 | 2.0 | 4.0 | 0.00 | 0.03 | 0.03 | 95 | 1017.2 |
| 20260906035248 | 64 | 308 | 1.0 | 2.0 | 0.00 | 0.03 | 0.03 | 95 | 1017.1 |
| 20260906034749 | 64 | 278 | 1.0 | 3.0 | 0.00 | 0.03 | 0.03 | 95 | 1017.1 |
| 20260906034248 | 64 | 284 | 2.0 | 3.0 | 0.00 | 0.03 | 0.03 | 95 | 1017.1 |
| 20260906033749 | 64 | 284 | 2.0 | 5.0 | 0.00 | 0.03 | 0.03 | 95 | 1017.1 |
| 20260906033249 | 64 | 347 | 3.0 | 5.0 | 0.00 | 0.03 | 0.03 | 95 | 1017.0 |
| 20260906032749 | 64 | 282 | 2.0 | 4.0 | 0.00 | 0.03 | 0.03 | 95 | 1017.1 |
| 20260906032247 | 64 | 350 | 2.0 | 3.0 | 0.00 | 0.03 | 0.03 | 95 | 1017.0 |
| 20260906031746 | 65 | 297 | 2.0 | 3.0 | 0.00 | 0.03 | 0.03 | 94 | 1017.0 |
| 20260906031244 | 65 | 284 | 2.0 | 4.0 | 0.00 | 0.03 | 0.03 | 95 | 1016.9 |
| 20260906030743 | 65 | 308 | 2.0 | 4.0 | 0.00 | 0.03 | 0.03 | 95 | 1017.1 |
| 20260906030244 | 65 | 344 | 1.0 | 3.0 | 0.00 | 0.03 | 0.03 | 95 | 1017.2 |
| 20260906025744 | 65 | 288 | 1.0 | 3.0 | 0.00 | 0.03 | 0.03 | 95 | 1017.3 |
| 20260906025244 | 65 | 246 | 2.0 | 4.0 | 0.00 | 0.03 | 0.03 | 95 | 1017.3 |
| 20260906024744 | 65 | 271 | 2.0 | 4.0 | 0.00 | 0.03 | 0.03 | 95 | 1017.3 |
| 20260906024244 | 65 | 307 | 2.0 | 5.0 | 0.00 | 0.03 | 0.03 | 95 | 1017.4 |
| 20260906023744 | 65 | 313 | 2.0 | 5.0 | 0.00 | 0.03 | 0.03 | 95 | 1017.3 |
| 20260906023244 | 65 | 305 | 2.0 | 3.0 | 0.00 | 0.03 | 0.03 | 94 | 1017.2 |
| 20260906022744 | 65 | 254 | 2.0 | 3.0 | 0.00 | 0.03 | 0.03 | 94 | 1017.2 |
| 20260906022245 | 65 | 290 | 2.0 | 2.0 | 0.00 | 0.03 | 0.03 | 94 | 1017.2 |
| 20260906021744 | 65 | 270 | 1.0 | 2.0 | 0.00 | 0.03 | 0.03 | 94 | 1017.1 |
| 20260906021241 | 65 | 285 | 2.0 | 3.0 | 0.00 | 0.03 | 0.03 | 94 | 1017.1 |
| 20260906020742 | 65 | 285 | 2.0 | 4.0 | 0.00 | 0.03 | 0.03 | 94 | 1017.3 |
| 20260906020241 | 65 | 267 | 2.0 | 4.0 | 0.00 | 0.03 | 0.03 | 93 | 1017.2 |
| 20260906015742 | 65 | 277 | 2.0 | 4.0 | 0.00 | 0.03 | 0.03 | 94 | 1017.2 |
| 20260906015242 | 65 | 282 | 2.0 | 3.0 | 0.00 | 0.03 | 0.03 | 94 | 1017.1 |
| 20260906014742 | 66 | 291 | 2.0 | 3.0 | 0.00 | 0.03 | 0.03 | 93 | 1017.0 |
| 20260906014242 | 66 | 282 | 2.0 | 4.0 | 0.00 | 0.03 | 0.03 | 93 | 1017.1 |
| 20260906013742 | 66 | 255 | 1.0 | 4.0 | 0.00 | 0.03 | 0.03 | 92 | 1017.1 |
| 20260906013243 | 66 | 295 | 1.0 | 3.0 | 0.00 | 0.03 | 0.03 | 92 | 1017.0 |
| 20260906012742 | 67 | 16 | 2.0 | 4.0 | 0.00 | 0.03 | 0.03 | 92 | 1016.9 |
| 20260906012240 | 67 | 277 | 2.0 | 4.0 | 0.00 | 0.03 | 0.03 | 92 | 1016.9 |
| 20260906011739 | 67 | 23 | 2.0 | 4.0 | 0.00 | 0.03 | 0.03 | 91 | 1016.7 |
| 20260906011237 | 67 | 7 | 2.0 | 4.0 | 0.00 | 0.03 | 0.03 | 91 | 1016.7 |
| 20260906010736 | 67 | 266 | 2.0 | 4.0 | 0.00 | 0.03 | 0.03 | 92 | 1016.6 |
| 20260906010237 | 67 | 2 | 2.0 | 4.0 | 0.00 | 0.03 | 0.03 | 91 | 1016.6 |
| 20260906005736 | 67 | 292 | 2.0 | 4.0 | 0.00 | 0.03 | 0.03 | 91 | 1016.7 |
| 20260906005234 | 67 | 293 | 2.0 | 4.0 | 0.00 | 0.03 | 0.03 | 90 | 1016.6 |
| 20260906004733 | 67 | 281 | 1.0 | 3.0 | 0.00 | 0.03 | 0.03 | 90 | 1016.6 |
| 20260906004234 | 67 | 290 | 2.0 | 4.0 | 0.00 | 0.03 | 0.03 | 90 | 1016.5 |
| 20260906003734 | 67 | 291 | 2.0 | 4.0 | 0.00 | 0.03 | 0.03 | 90 | 1016.5 |
| 20260906003234 | 68 | 290 | 2.0 | 4.0 | 0.00 | 0.03 | 0.03 | 89 | 1016.4 |
| 20260906002734 | 68 | 320 | 1.0 | 2.0 | 0.00 | 0.03 | 0.03 | 89 | 1016.4 |
| 20260906002234 | 68 | 308 | 2.0 | 4.0 | 0.00 | 0.03 | 0.03 | 89 | 1016.3 |
| 20260906001735 | 68 | 286 | 2.0 | 4.0 | 0.00 | 0.03 | 0.03 | 89 | 1016.2 |
| 20260906001231 | 69 | 292 | 2.0 | 3.0 | 0.00 | 0.03 | 0.03 | 88 | 1016.1 |
| 20260906000732 | 69 | 281 | 2.0 | 3.0 | 0.00 | 0.03 | 0.03 | 87 | 1016.2 |
| 20260906000233 | 70 | 344 | 2.0 | 3.0 | 0.00 | 0.03 | 0.03 | 87 | 1016.2 |
| 20260905235732 | 70 | 339 | 2.0 | 4.0 | 0.00 | 0.03 | 0.03 | 86 | 1016.1 |
| 20260905235231 | 71 | 0 | 2.0 | 4.0 | 0.00 | 0.03 | 0.03 | 86 | 1016.1 |
| 20260905234732 | 71 | 305 | 1.0 | 4.0 | 0.00 | 0.03 | 0.03 | 83 | 1016.0 |
| 20260905234233 | 72 | 351 | 1.0 | 4.0 | 0.00 | 0.03 | 0.03 | 82 | 1015.9 |
| 20260905233732 | 73 | 0 | 0.0 | 3.0 | 0.00 | 0.03 | 0.03 | 79 | 1015.9 |
| 20260905233233 | 75 | 321 | 0.0 | 3.0 | 0.00 | 0.03 | 0.03 | 76 | 1015.9 |
| 20260905232732 | 76 | 0 | 0.0 | 1.0 | 0.00 | 0.03 | 0.03 | 75 | 1016.0 |
| 20260905232232 | 77 | 0 | 0.0 | 1.0 | 0.00 | 0.03 | 0.03 | 73 | 1015.9 |
| 20260905231732 | 78 | 0 | 0.0 | 1.0 | 0.00 | 0.03 | 0.03 | 71 | 1015.8 |
| 20260905231231 | 79 | 322 | 0.0 | 2.0 | 0.00 | 0.03 | 0.03 | 65 | 1015.9 |
| 20260905230730 | 80 | 0 | 0.0 | 2.0 | 0.00 | 0.03 | 0.03 | 62 | 1015.9 |
| 20260905230231 | 81 | 0 | 0.0 | 2.0 | 0.00 | 0.03 | 0.03 | 61 | 1015.9 |
| 20260905225729 | 81 | 0 | 0.0 | 2.0 | 0.00 | 0.03 | 0.03 | 60 | 1015.9 |
| 20260905225230 | 81 | 0 | 1.0 | 3.0 | 0.00 | 0.03 | 0.03 | 60 | 1015.9 |
| 20260905224729 | 81 | 0 | 1.0 | 3.0 | 0.00 | 0.03 | 0.03 | 57 | 1015.9 |
| 20260905224230 | 81 | 0 | 1.0 | 2.0 | 0.00 | 0.03 | 0.03 | 58 | 1016.0 |
| 20260905223730 | 81 | 0 | 1.0 | 3.0 | 0.00 | 0.03 | 0.03 | 58 | 1016.0 |
| 20260905223230 | 81 | 0 | 1.0 | 4.0 | 0.00 | 0.03 | 0.03 | 57 | 1016.0 |
| 20260905222730 | 82 | 351 | 1.0 | 5.0 | 0.00 | 0.03 | 0.03 | 55 | 1016.1 |
| 20260905222228 | 82 | 322 | 2.0 | 5.0 | 0.00 | 0.03 | 0.03 | 54 | 1016.0 |
| 20260905221724 | 82 | 338 | 2.0 | 5.0 | 0.00 | 0.03 | 0.03 | 54 | 1015.9 |
| 20260905221225 | 83 | 321 | 2.0 | 5.0 | 0.00 | 0.03 | 0.03 | 54 | 1015.9 |
| 20260905220724 | 83 | 268 | 2.0 | 4.0 | 0.00 | 0.03 | 0.03 | 54 | 1016.0 |
| 20260905220225 | 84 | 264 | 1.0 | 4.0 | 0.00 | 0.03 | 0.03 | 52 | 1015.9 |
| 20260905215725 | 84 | 246 | 1.0 | 4.0 | 0.00 | 0.03 | 0.03 | 50 | 1015.9 |
| 20260905215225 | 83 | 273 | 2.0 | 6.0 | 0.00 | 0.03 | 0.03 | 53 | 1016.0 |
| 20260905214724 | 83 | 304 | 2.0 | 6.0 | 0.00 | 0.03 | 0.03 | 53 | 1015.9 |
| 20260905214225 | 83 | 261 | 2.0 | 4.0 | 0.00 | 0.03 | 0.03 | 51 | 1015.8 |
| 20260905213726 | 83 | 130 | 2.0 | 5.0 | 0.00 | 0.03 | 0.03 | 55 | 1015.9 |
| 20260905213225 | 83 | 321 | 2.0 | 5.0 | 0.00 | 0.03 | 0.03 | 52 | 1015.9 |
| 20260905212723 | 83 | 342 | 2.0 | 5.0 | 0.00 | 0.03 | 0.03 | 57 | 1015.8 |
| 20260905212222 | 82 | 262 | 2.0 | 6.0 | 0.00 | 0.04 | 0.03 | 59 | 1015.7 |
| 20260905211720 | 81 | 0 | 2.0 | 6.0 | 0.00 | 0.04 | 0.03 | 59 | 1015.8 |
| 20260905211220 | 81 | 160 | 2.0 | 6.0 | 0.00 | 0.07 | 0.03 | 61 | 1015.8 |
| 20260905210720 | 81 | 245 | 1.0 | 5.0 | 0.00 | 0.08 | 0.03 | 64 | 1015.9 |
| 20260905210220 | 81 | 190 | 2.0 | 8.0 | 0.00 | 0.08 | 0.03 | 66 | 1015.9 |
| 20260905205720 | 80 | 228 | 2.0 | 8.0 | 0.00 | 0.08 | 0.03 | 63 | 1015.9 |
| 20260905205220 | 80 | 324 | 3.0 | 8.0 | 0.00 | 0.08 | 0.03 | 63 | 1015.9 |
| 20260905204720 | 80 | 287 | 2.0 | 6.0 | 0.00 | 0.08 | 0.03 | 65 | 1015.9 |
| 20260905204220 | 80 | 236 | 1.0 | 6.0 | 0.00 | 0.08 | 0.03 | 65 | 1015.9 |
| 20260905203720 | 79 | 251 | 1.0 | 4.0 | 0.00 | 0.08 | 0.03 | 66 | 1016.0 |
| 20260905203220 | 79 | 239 | 1.0 | 5.0 | 0.00 | 0.08 | 0.03 | 65 | 1016.0 |
| 20260905202718 | 78 | 144 | 1.0 | 5.0 | 0.00 | 0.08 | 0.03 | 67 | 1015.9 |
| 20260905202215 | 77 | 191 | 2.0 | 7.0 | 0.00 | 0.08 | 0.03 | 71 | 1016.0 |
| 20260905201712 | 77 | 120 | 2.0 | 7.0 | 0.00 | 0.08 | 0.03 | 69 | 1016.0 |
| 20260905201211 | 77 | 250 | 2.0 | 7.0 | 0.00 | 0.08 | 0.03 | 69 | 1015.9 |
| 20260905200709 | 77 | 185 | 2.0 | 7.0 | 0.00 | 0.08 | 0.03 | 69 | 1015.9 |
| 20260905200209 | 76 | 221 | 2.0 | 7.0 | 0.00 | 0.08 | 0.03 | 73 | 1016.0 |
| 20260905195709 | 75 | 85 | 2.0 | 6.0 | 0.00 | 0.08 | 0.03 | 74 | 1015.9 |
| 20260905195209 | 74 | 288 | 2.0 | 6.0 | 0.00 | 0.08 | 0.03 | 74 | 1016.0 |
| 20260905194709 | 74 | 155 | 1.0 | 4.0 | 0.00 | 0.08 | 0.03 | 75 | 1016.0 |
| 20260905194209 | 74 | 0 | 1.0 | 4.0 | 0.00 | 0.08 | 0.03 | 77 | 1015.9 |
| 20260905193709 | 74 | 0 | 1.0 | 3.0 | 0.00 | 0.08 | 0.03 | 77 | 1015.9 |
| 20260905193209 | 73 | 0 | 2.0 | 5.0 | 0.00 | 0.08 | 0.03 | 77 | 1016.0 |
| 20260905192709 | 73 | 181 | 2.0 | 5.0 | 0.00 | 0.08 | 0.03 | 77 | 1015.9 |
| 20260905192206 | 73 | 307 | 1.0 | 4.0 | 0.00 | 0.08 | 0.03 | 78 | 1016.0 |
| 20260905191707 | 73 | 122 | 1.0 | 6.0 | 0.00 | 0.08 | 0.03 | 78 | 1016.0 |
| 20260905191207 | 72 | 256 | 1.0 | 6.0 | 0.00 | 0.08 | 0.03 | 78 | 1015.9 |
| 20260905190707 | 72 | 154 | 2.0 | 8.0 | 0.00 | 0.08 | 0.03 | 80 | 1016.0 |
| 20260905190203 | 72 | 113 | 2.0 | 8.0 | 0.00 | 0.08 | 0.03 | 80 | 1016.0 |
| 20260905185704 | 72 | 231 | 2.0 | 5.0 | 0.00 | 0.08 | 0.03 | 80 | 1016.0 |
| 20260905185204 | 72 | 326 | 2.0 | 7.0 | 0.00 | 0.08 | 0.03 | 81 | 1016.2 |
| 20260905184704 | 71 | 253 | 2.0 | 7.0 | 0.00 | 0.08 | 0.03 | 82 | 1016.3 |
| 20260905184203 | 71 | 261 | 2.0 | 5.0 | 0.00 | 0.08 | 0.03 | 82 | 1016.3 |
| 20260905183704 | 71 | 261 | 2.0 | 5.0 | 0.00 | 0.08 | 0.03 | 83 | 1016.5 |
| 20260905183202 | 71 | 312 | 2.0 | 8.0 | 0.00 | 0.08 | 0.03 | 84 | 1016.9 |
| 20260905182702 | 71 | 287 | 2.0 | 8.0 | 0.01 | 0.08 | 0.03 | 84 | 1017.0 |
| 20260905182202 | 71 | 270 | 1.0 | 8.0 | 0.02 | 0.08 | 0.03 | 85 | 1017.1 |
| 20260905181702 | 71 | 315 | 1.0 | 4.0 | 0.02 | 0.08 | 0.03 | 85 | 1017.2 |
| 20260905181202 | 70 | 167 | 1.0 | 4.0 | 0.03 | 0.08 | 0.03 | 85 | 1017.3 |
| 20260905180702 | 70 | 359 | 1.0 | 4.0 | 0.03 | 0.08 | 0.03 | 86 | 1017.5 |
| 20260905180202 | 69 | 267 | 2.0 | 4.0 | 0.03 | 0.08 | 0.03 | 89 | 1017.7 |
| 20260905175702 | 69 | 274 | 2.0 | 4.0 | 0.03 | 0.08 | 0.03 | 90 | 1017.7 |
| 20260905175202 | 69 | 281 | 2.0 | 4.0 | 0.03 | 0.08 | 0.03 | 90 | 1017.6 |
| 20260905174703 | 69 | 279 | 1.0 | 4.0 | 0.03 | 0.08 | 0.03 | 89 | 1017.8 |
| 20260905174202 | 69 | 297 | 1.0 | 3.0 | 0.03 | 0.08 | 0.03 | 89 | 1018.0 |
| 20260905173700 | 69 | 334 | 1.0 | 3.0 | 0.03 | 0.08 | 0.03 | 87 | 1018.2 |
| 20260905173159 | 70 | 214 | 1.0 | 4.0 | 0.03 | 0.08 | 0.03 | 86 | 1018.2 |
| 20260905172659 | 70 | 312 | 1.0 | 4.0 | 0.02 | 0.07 | 0.02 | 83 | 1018.4 |
| 20260905172159 | 70 | 0 | 0.0 | 2.0 | 0.02 | 0.07 | 0.02 | 84 | 1018.7 |
| 20260905171657 | 71 | 58 | 0.0 | 2.0 | 0.01 | 0.06 | 0.01 | 84 | 1019.0 |
| 20260905171156 | 71 | 0 | 0.0 | 2.0 | 0.00 | 0.06 | 0.00 | 83 | 1019.2 |
| 20260905170654 | 71 | 336 | 0.0 | 2.0 | 0.00 | 0.06 | 0.00 | 82 | 1019.1 |
| 20260905170153 | 71 | 0 | 0.0 | 1.0 | 0.00 | 0.05 | 0.00 | 81 | 1019.3 |
| 20260905165654 | 72 | 0 | 0.0 | 2.0 | 0.00 | 0.05 | 0.00 | 80 | 1019.1 |
| 20260905165154 | 72 | 0 | 0.0 | 2.0 | 0.00 | 0.05 | 0.00 | 79 | 1019.2 |
| 20260905164654 | 73 | 305 | 1.0 | 6.0 | 0.00 | 0.05 | 0.00 | 76 | 1019.3 |
| 20260905164154 | 73 | 47 | 3.0 | 8.0 | 0.00 | 0.05 | 0.00 | 74 | 1019.3 |
| 20260905163655 | 74 | 296 | 4.0 | 9.0 | 0.00 | 0.05 | 0.00 | 71 | 1019.5 |
| 20260905163154 | 75 | 143 | 4.0 | 11.0 | 0.00 | 0.05 | 0.00 | 68 | 1019.5 |
| 20260905162652 | 77 | 284 | 6.0 | 15.0 | 0.00 | 0.05 | 0.00 | 65 | 1019.7 |
| 20260905162151 | 78 | 323 | 6.0 | 15.0 | 0.00 | 0.05 | 0.00 | 64 | 1019.7 |
| 20260905161652 | 80 | 297 | 4.0 | 14.0 | 0.00 | 0.05 | 0.00 | 66 | 1019.3 |
| 20260905161151 | 80 | 6 | 3.0 | 9.0 | 0.00 | 0.05 | 0.00 | 70 | 1018.9 |
| 20260905160652 | 81 | 334 | 3.0 | 9.0 | 0.00 | 0.05 | 0.00 | 70 | 1018.6 |
| 20260905160152 | 82 | 253 | 3.0 | 7.0 | 0.00 | 0.05 | 0.00 | 68 | 1018.5 |
| 20260905155652 | 82 | 318 | 4.0 | 8.0 | 0.00 | 0.05 | 0.00 | 68 | 1018.3 |
| 20260905155152 | 82 | 313 | 4.0 | 8.0 | 0.00 | 0.05 | 0.00 | 67 | 1018.5 |
| 20260905154652 | 82 | 351 | 4.0 | 10.0 | 0.00 | 0.05 | 0.00 | 68 | 1018.5 |
| 20260905154152 | 83 | 300 | 3.0 | 10.0 | 0.00 | 0.05 | 0.00 | 67 | 1018.4 |
| 20260905153652 | 83 | 171 | 2.0 | 9.0 | 0.00 | 0.05 | 0.00 | 66 | 1018.5 |
| 20260905153152 | 83 | 0 | 3.0 | 8.0 | 0.00 | 0.05 | 0.00 | 66 | 1018.6 |
| 20260905152649 | 82 | 228 | 4.0 | 8.0 | 0.00 | 0.05 | 0.00 | 68 | 1018.6 |
| 20260905152150 | 82 | 34 | 4.0 | 10.0 | 0.00 | 0.05 | 0.00 | 68 | 1018.5 |
| 20260905151649 | 81 | 293 | 4.0 | 10.0 | 0.00 | 0.05 | 0.00 | 69 | 1018.5 |
| 20260905151150 | 81 | 316 | 3.0 | 7.0 | 0.00 | 0.05 | 0.00 | 71 | 1018.5 |
| 20260905150649 | 80 | 309 | 2.0 | 4.0 | 0.00 | 0.05 | 0.00 | 74 | 1018.3 |
| 20260905150150 | 80 | 2 | 2.0 | 4.0 | 0.00 | 0.05 | 0.00 | 74 | 1018.2 |
| 20260905145651 | 80 | 348 | 3.0 | 7.0 | 0.00 | 0.05 | 0.00 | 73 | 1018.2 |
| 20260905145150 | 81 | 299 | 3.0 | 7.0 | 0.00 | 0.05 | 0.00 | 73 | 1018.0 |
| 20260905144650 | 81 | 27 | 3.0 | 9.0 | 0.00 | 0.05 | 0.00 | 71 | 1017.9 |
| 20260905144150 | 82 | 237 | 2.0 | 9.0 | 0.00 | 0.05 | 0.00 | 70 | 1017.9 |
| 20260905143650 | 82 | 176 | 1.0 | 6.0 | 0.00 | 0.05 | 0.00 | 70 | 1018.0 |
| 20260905143150 | 81 | 0 | 1.0 | 4.0 | 0.00 | 0.05 | 0.00 | 74 | 1018.2 |
| 20260905142650 | 80 | 190 | 1.0 | 4.0 | 0.00 | 0.05 | 0.00 | 74 | 1018.2 |
| 20260905142151 | 79 | 293 | 1.0 | 4.0 | 0.00 | 0.05 | 0.00 | 76 | 1018.3 |
| 20260905141648 | 78 | 44 | 1.0 | 3.0 | 0.00 | 0.05 | 0.00 | 78 | 1018.4 |
| 20260905141148 | 78 | 1 | 2.0 | 4.0 | 0.00 | 0.05 | 0.00 | 80 | 1018.3 |
| 20260905140648 | 77 | 0 | 2.0 | 4.0 | 0.00 | 0.05 | 0.00 | 80 | 1018.4 |
| 20260905140149 | 76 | 29 | 2.0 | 4.0 | 0.00 | 0.05 | 0.00 | 83 | 1018.4 |
| 20260905135648 | 76 | 70 | 1.0 | 4.0 | 0.00 | 0.05 | 0.00 | 81 | 1018.3 |
| 20260905135148 | 75 | 134 | 2.0 | 5.0 | 0.00 | 0.05 | 0.00 | 85 | 1018.3 |
| 20260905134648 | 74 | 39 | 2.0 | 5.0 | 0.00 | 0.05 | 0.00 | 87 | 1018.3 |
| 20260905134148 | 73 | 63 | 2.0 | 4.0 | 0.00 | 0.05 | 0.00 | 86 | 1018.3 |
| 20260905133645 | 73 | 41 | 2.0 | 4.0 | 0.00 | 0.05 | 0.00 | 88 | 1018.3 |
| 20260905133146 | 71 | 29 | 2.0 | 4.0 | 0.00 | 0.05 | 0.00 | 91 | 1018.3 |
| 20260905132642 | 71 | 36 | 2.0 | 4.0 | 0.00 | 0.05 | 0.00 | 92 | 1018.3 |
| 20260905132143 | 70 | 20 | 2.0 | 4.0 | 0.00 | 0.05 | 0.00 | 92 | 1018.4 |
| 20260905131642 | 70 | 33 | 3.0 | 4.0 | 0.00 | 0.05 | 0.00 | 92 | 1018.5 |
| 20260905131143 | 69 | 323 | 4.0 | 4.0 | 0.00 | 0.05 | 0.00 | 92 | 1018.6 |
| 20260905130643 | 68 | 346 | 3.0 | 4.0 | 0.00 | 0.05 | 0.00 | 93 | 1018.7 |
| 20260905130143 | 67 | 326 | 3.0 | 4.0 | 0.00 | 0.05 | 0.00 | 94 | 1018.7 |
| 20260905125643 | 67 | 327 | 3.0 | 4.0 | 0.00 | 0.05 | 0.00 | 95 | 1018.8 |
| 20260905125143 | 66 | 315 | 2.0 | 3.0 | 0.00 | 0.05 | 0.00 | 96 | 1018.7 |
| 20260905124643 | 66 | 326 | 1.0 | 3.0 | 0.00 | 0.05 | 0.00 | 96 | 1018.8 |
| 20260905124141 | 65 | 316 | 2.0 | 3.0 | 0.00 | 0.05 | 0.00 | 96 | 1018.9 |
| 20260905123642 | 65 | 352 | 2.0 | 3.0 | 0.00 | 0.05 | 0.00 | 97 | 1018.8 |
| 20260905123129 | 64 | 310 | 2.0 | 4.0 | 0.00 | 0.05 | 0.00 | 97 | 1018.8 |
| 20260905122628 | 64 | 308 | 2.0 | 4.0 | 0.00 | 0.05 | 0.00 | 97 | 1018.8 |
| 20260905122114 | 64 | 305 | 2.0 | 4.0 | 0.00 | 0.05 | 0.00 | 97 | 1018.8 |
| 20260905121614 | 63 | 310 | 2.0 | 3.0 | 0.00 | 0.05 | 0.00 | 97 | 1018.7 |
| 20260905121114 | 63 | 318 | 2.0 | 3.0 | 0.00 | 0.05 | 0.00 | 97 | 1018.7 |
| 20260905120614 | 63 | 346 | 2.0 | 3.0 | 0.00 | 0.05 | 0.00 | 97 | 1018.6 |
| 20260905120114 | 63 | 11 | 1.0 | 3.0 | 0.00 | 0.05 | 0.00 | 97 | 1018.5 |
| 20260905115614 | 62 | 11 | 2.0 | 3.0 | 0.00 | 0.05 | 0.00 | 97 | 1018.6 |
| 20260905115114 | 62 | 327 | 2.0 | 3.0 | 0.00 | 0.05 | 0.00 | 97 | 1018.6 |
| 20260905114615 | 62 | 327 | 2.0 | 3.0 | 0.00 | 0.05 | 0.00 | 97 | 1018.6 |
| 20260905114115 | 62 | 323 | 2.0 | 3.0 | 0.00 | 0.05 | 0.00 | 97 | 1018.5 |
| 20260905113600 | 62 | 313 | 2.0 | 3.0 | 0.00 | 0.05 | 0.00 | 97 | 1018.5 |
| 20260905113100 | 62 | 330 | 2.0 | 4.0 | 0.00 | 0.05 | 0.00 | 97 | 1018.4 |
| 20260905112545 | 62 | 338 | 2.0 | 4.0 | 0.00 | 0.05 | 0.00 | 97 | 1018.4 |
| 20260905112045 | 62 | 287 | 2.0 | 3.0 | 0.00 | 0.05 | 0.00 | 97 | 1018.4 |
| 20260905111545 | 62 | 302 | 2.0 | 4.0 | 0.00 | 0.05 | 0.00 | 97 | 1018.3 |
| 20260905111045 | 62 | 269 | 2.0 | 4.0 | 0.00 | 0.05 | 0.00 | 97 | 1018.3 |
| 20260905110545 | 62 | 317 | 2.0 | 4.0 | 0.00 | 0.05 | 0.00 | 97 | 1018.3 |
| 20260905110046 | 62 | 278 | 2.0 | 4.0 | 0.00 | 0.05 | 0.00 | 97 | 1018.2 |
| 20260905105545 | 62 | 309 | 2.0 | 4.0 | 0.00 | 0.05 | 0.00 | 97 | 1018.3 |
| 20260905105046 | 62 | 315 | 2.0 | 4.0 | 0.00 | 0.05 | 0.00 | 97 | 1018.2 |
| 20260905104543 | 62 | 314 | 2.0 | 3.0 | 0.00 | 0.05 | 0.00 | 97 | 1018.2 |
| 20260905104044 | 62 | 297 | 2.0 | 4.0 | 0.00 | 0.05 | 0.00 | 97 | 1018.0 |
| 20260905103531 | 62 | 315 | 2.0 | 4.0 | 0.00 | 0.05 | 0.00 | 97 | 1018.0 |
| 20260905103031 | 62 | 315 | 2.0 | 4.0 | 0.00 | 0.05 | 0.00 | 97 | 1018.0 |
| 20260905102530 | 62 | 300 | 3.0 | 4.0 | 0.00 | 0.05 | 0.00 | 97 | 1018.2 |
| 20260905102031 | 62 | 294 | 2.0 | 4.0 | 0.00 | 0.05 | 0.00 | 97 | 1018.2 |
| 20260905101531 | 63 | 326 | 3.0 | 4.0 | 0.00 | 0.05 | 0.00 | 97 | 1018.0 |
| 20260905101031 | 63 | 321 | 3.0 | 4.0 | 0.00 | 0.05 | 0.00 | 97 | 1018.0 |
| 20260905100532 | 63 | 286 | 2.0 | 4.0 | 0.00 | 0.05 | 0.00 | 97 | 1018.0 |
| 20260905100032 | 63 | 318 | 2.0 | 4.0 | 0.00 | 0.05 | 0.00 | 97 | 1018.0 |
| 20260905095531 | 63 | 315 | 2.0 | 4.0 | 0.00 | 0.05 | 0.00 | 97 | 1017.9 |
| 20260905095017 | 63 | 333 | 3.0 | 4.0 | 0.00 | 0.05 | 0.00 | 97 | 1018.0 |
| 20260905094517 | 63 | 339 | 3.0 | 4.0 | 0.00 | 0.05 | 0.00 | 97 | 1017.9 |
| 20260905094001 | 63 | 341 | 3.0 | 4.0 | 0.00 | 0.05 | 0.00 | 97 | 1017.9 |
| 20260905093502 | 63 | 324 | 3.0 | 4.0 | 0.00 | 0.05 | 0.00 | 97 | 1017.9 |
| 20260905093002 | 63 | 323 | 3.0 | 4.0 | 0.00 | 0.05 | 0.00 | 97 | 1017.9 |
| 20260905092502 | 63 | 313 | 2.0 | 4.0 | 0.00 | 0.05 | 0.00 | 97 | 1017.8 |
| 20260905092002 | 63 | 299 | 3.0 | 4.0 | 0.00 | 0.05 | 0.00 | 97 | 1017.7 |
| 20260905091502 | 63 | 329 | 2.0 | 4.0 | 0.00 | 0.05 | 0.00 | 97 | 1017.8 |
| 20260905091002 | 63 | 322 | 2.0 | 3.0 | 0.00 | 0.05 | 0.00 | 97 | 1017.8 |
| 20260905090503 | 63 | 327 | 3.0 | 4.0 | 0.00 | 0.05 | 0.00 | 97 | 1017.8 |
| 20260905090002 | 63 | 332 | 2.0 | 4.0 | 0.00 | 0.05 | 0.00 | 97 | 1017.8 |
| 20260905085502 | 63 | 299 | 2.0 | 3.0 | 0.00 | 0.05 | 0.00 | 97 | 1017.9 |
| 20260905085003 | 63 | 311 | 2.0 | 3.0 | 0.00 | 0.05 | 0.00 | 97 | 1017.9 |
| 20260905084502 | 63 | 14 | 2.0 | 4.0 | 0.00 | 0.05 | 0.00 | 97 | 1017.9 |
| 20260905083948 | 63 | 330 | 2.0 | 4.0 | 0.00 | 0.05 | 0.00 | 97 | 1017.9 |
| 20260905083448 | 63 | 324 | 2.0 | 3.0 | 0.00 | 0.05 | 0.00 | 97 | 1017.9 |
| 20260905082947 | 63 | 346 | 3.0 | 4.0 | 0.00 | 0.05 | 0.00 | 97 | 1018.0 |
| 20260905082448 | 64 | 341 | 3.0 | 4.0 | 0.00 | 0.05 | 0.00 | 97 | 1018.0 |
| 20260905081948 | 64 | 333 | 3.0 | 4.0 | 0.00 | 0.05 | 0.00 | 97 | 1018.0 |
| 20260905081448 | 64 | 332 | 2.0 | 3.0 | 0.00 | 0.05 | 0.00 | 97 | 1018.0 |
| 20260905080948 | 64 | 359 | 2.0 | 4.0 | 0.00 | 0.05 | 0.00 | 97 | 1018.2 |
| 20260905080447 | 64 | 6 | 2.0 | 4.0 | 0.00 | 0.05 | 0.00 | 97 | 1018.2 |
| 20260905075948 | 64 | 336 | 2.0 | 3.0 | 0.00 | 0.05 | 0.00 | 97 | 1018.3 |